GW5798 Weather Reports


time (UTC)temp
F
wind
direction
speed
knots
gust
knots
rain 1hr
in
rain 24hr
in
rain mn
in
humidity
%
barometer
mb
20260506185048 84 191 1.7 5.2 0.00 0.00 0.00 76 1009.7
20260506184058 85 125 0.0 1.7 0.00 0.00 0.00 77 1009.9
20260506183027 84 140 0.9 2.6 0.00 0.00 0.00 77 1010.1
20260506182017 83 161 0.9 1.7 0.00 0.00 0.00 79 1010.2
20260506181109 83 227 0.0 1.7 0.00 0.00 0.00 81 1010.4
20260506180058 83 165 0.9 3.5 0.00 0.00 0.00 80 1010.6
20260506175048 82 158 0.0 1.7 0.00 0.00 0.00 81 1010.9
20260506174038 82 168 0.0 1.7 0.00 0.00 0.00 81 1010.9
20260506173028 83 0.0 0.9 0.00 0.00 0.00 81 1011.2
20260506172018 82 160 0.9 3.5 0.00 0.00 0.00 82 1011.3
20260506171109 81 92 0.9 2.6 0.00 0.00 0.00 82 1011.3
20260506170119 81 195 0.9 2.6 0.00 0.00 0.00 84 1011.3
20260506165049 80 144 0.0 2.6 0.00 0.00 0.00 85 1011.3
20260506164139 80 271 0.9 6.1 0.00 0.00 0.00 85 1011.1
20260506163049 80 288 0.9 3.5 0.00 0.00 0.00 83 1011.2
20260506162019 81 257 0.0 1.7 0.00 0.00 0.00 82 1010.9
20260506161110 81 189 0.9 2.6 0.00 0.00 0.00 83 1010.8
20260506160100 80 161 0.0 1.7 0.00 0.00 0.00 83 1010.8
20260506155110 80 185 0.9 3.5 0.00 0.00 0.00 83 1010.7
20260506154100 80 184 0.9 6.1 0.00 0.00 0.00 84 1010.8
20260506153030 80 0.0 1.7 0.00 0.00 0.00 85 1010.7
20260506152020 80 70 0.9 2.6 0.00 0.00 0.00 85 1010.5
20260506151111 80 116 0.9 2.6 0.00 0.00 0.00 86 1010.3
20260506150101 80 187 0.0 3.5 0.00 0.00 0.00 86 1010.3
20260506145111 80 175 0.9 2.6 0.00 0.00 0.00 86 1010.3
20260506144041 80 91 0.0 1.7 0.00 0.00 0.00 87 1010.0
20260506143031 79 24 0.9 1.7 0.00 0.00 0.00 88 1009.7
20260506142021 79 149 0.9 2.6 0.00 0.00 0.00 89 1009.7
20260506141111 79 175 0.0 2.6 0.00 0.00 0.00 89 1009.9
20260506135051 78 183 0.0 1.7 0.00 0.00 0.00 91 1009.9
20260506134101 77 190 0.0 1.7 0.00 0.00 0.00 92 1010.1
20260506133031 77 144 0.9 2.6 0.00 0.00 0.00 93 1009.9
20260506132021 76 210 0.0 1.7 0.00 0.00 0.00 93 1010.2
20260506131112 76 172 0.0 0.9 0.00 0.00 0.00 94 1010.2
20260506125052 76 232 0.9 2.6 0.00 0.00 0.00 94 1010.3
20260506124042 76 211 0.0 1.7 0.00 0.00 0.00 95 1010.0
20260506123032 75 80 0.9 2.6 0.00 0.00 0.00 95 1009.9
20260506122022 75 0.0 0.9 0.00 0.00 0.00 95 1009.9
20260506121113 75 161 0.9 2.6 0.00 0.00 0.00 95 1009.7
20260506115053 75 180 0.0 2.6 0.00 0.00 0.00 95 1009.6
20260506114103 75 0.0 0.9 0.00 0.00 0.00 95 1009.4
20260506113033 75 0.0 0.9 0.00 0.00 0.00 95 1009.3
20260506112023 75 228 0.0 2.6 0.00 0.00 0.00 95 1009.1
20260506111114 75 161 0.9 1.7 0.00 0.00 0.00 95 1009.0
20260506110104 75 200 0.9 2.6 0.00 0.00 0.00 95 1009.0
20260506105114 74 115 0.9 2.6 0.00 0.00 0.00 94 1008.9
20260506104043 75 88 0.0 1.7 0.00 0.00 0.00 94 1008.8
20260506103033 75 115 0.0 1.7 0.00 0.00 0.00 94 1008.9
20260506102024 75 137 0.9 3.5 0.00 0.00 0.00 93 1008.8
20260506101115 75 252 0.9 3.5 0.00 0.00 0.00 93 1008.8
20260506100125 75 149 0.9 1.7 0.00 0.00 0.00 93 1008.7
20260506095054 75 171 0.9 5.2 0.00 0.00 0.00 93 1008.8
20260506094044 75 170 0.9 5.2 0.00 0.00 0.00 92 1008.6
20260506093034 75 160 1.7 6.1 0.00 0.00 0.00 92 1008.4
20260506092024 76 99 0.9 7.0 0.00 0.00 0.00 92 1008.6
20260506091115 76 209 0.9 5.2 0.00 0.00 0.00 91 1008.5
20260506090105 76 142 0.9 5.2 0.00 0.00 0.00 91 1008.6
20260506085055 76 127 0.9 3.5 0.00 0.00 0.00 91 1008.7
20260506084105 76 163 0.9 6.1 0.00 0.00 0.00 91 1008.7
20260506083055 76 127 0.9 3.5 0.00 0.00 0.00 91 1008.9
20260506082025 76 180 1.7 3.5 0.00 0.00 0.00 91 1008.9
20260506081116 76 161 0.9 2.6 0.00 0.00 0.00 91 1008.9
20260506080106 76 252 0.9 2.6 0.00 0.00 0.00 92 1009.0
20260506073036 76 125 0.9 1.7 0.00 0.00 0.00 92 1009.3
20260506072026 76 198 0.9 3.5 0.00 0.00 0.00 92 1009.5
20260506071016 76 157 0.9 3.5 0.00 0.00 0.00 92 1009.4
20260506070147 76 111 0.9 3.5 0.00 0.00 0.00 92 1009.5
20260506062107 76 121 0.9 3.5 0.00 0.00 0.00 92 1009.6
20260506061017 76 186 0.9 2.6 0.00 0.00 0.00 92 1009.8
20260506060107 76 257 0.9 1.7 0.00 0.00 0.00 92 1009.8
20260506051017 76 120 0.9 5.2 0.00 0.00 0.00 91 1009.8
20260506050108 76 185 0.9 2.6 0.00 0.00 0.00 91 1009.6
20260506045058 77 169 0.9 3.5 0.00 0.00 0.00 90 1009.7
20260506044048 77 184 0.9 2.6 0.00 0.00 0.00 89 1009.8
20260506043038 77 125 0.9 3.5 0.00 0.00 0.00 89 1009.7
20260506042028 77 147 0.9 2.6 0.00 0.00 0.00 88 1009.6
20260506041018 77 193 1.7 6.1 0.00 0.00 0.00 87 1009.4
20260506040209 78 230 1.7 5.2 0.00 0.00 0.00 86 1009.6
20260506035059 78 135 0.9 1.7 0.00 0.00 0.00 86 1009.4
20260506034049 78 213 0.9 5.2 0.00 0.00 0.00 86 1009.4
20260506033039 78 151 1.7 6.1 0.00 0.00 0.00 86 1009.1
20260506032049 78 162 0.9 3.5 0.00 0.00 0.00 86 1009.0
20260506031019 78 158 0.9 7.0 0.00 0.00 0.00 86 1008.8
20260506030130 78 197 0.9 3.5 0.00 0.00 0.00 85 1008.7
20260506025100 78 156 1.7 5.2 0.00 0.00 0.00 85 1008.8
20260506024109 78 136 1.7 5.2 0.00 0.00 0.00 85 1008.6
20260506023039 78 176 1.7 3.5 0.00 0.00 0.00 84 1008.5
20260506022029 79 166 1.7 6.1 0.00 0.00 0.00 84 1008.4
20260506021019 79 138 1.7 5.2 0.00 0.00 0.00 83 1008.3
20260506020110 79 144 1.7 5.2 0.00 0.00 0.00 82 1008.2
20260506015100 79 130 1.7 3.5 0.00 0.00 0.00 82 1008.0
20260506014050 79 169 1.7 6.1 0.00 0.00 0.00 81 1007.8
20260506013040 79 116 0.9 6.1 0.00 0.00 0.00 80 1007.8
20260506012050 79 194 0.9 3.5 0.00 0.00 0.00 79 1007.5
20260506011020 80 186 1.7 7.0 0.00 0.00 0.00 79 1007.3
20260506010111 80 172 1.7 5.2 0.00 0.00 0.00 79 1007.3
20260506005101 80 162 1.7 7.8 0.00 0.00 0.00 78 1007.2
20260506004051 80 176 1.7 5.2 0.00 0.00 0.00 78 1007.2
20260506003041 80 104 0.9 5.2 0.00 0.00 0.00 78 1007.1
20260506002051 81 164 1.7 6.1 0.00 0.00 0.00 77 1006.9
20260506001041 81 131 1.7 7.0 0.00 0.00 0.00 77 1007.1
20260506000112 81 145 0.9 3.5 0.00 0.00 0.00 78 1007.2
20260505235102 81 238 0.9 7.0 0.00 0.00 0.00 77 1007.0
20260505234052 81 178 3.5 7.0 0.00 0.00 0.00 76 1007.0
20260505233041 82 179 1.7 7.8 0.00 0.00 0.00 76 1007.0
20260505232032 82 138 0.9 7.0 0.00 0.00 0.00 76 1007.0
20260505231022 82 150 0.9 3.5 0.00 0.00 0.00 76 1006.9
20260505230112 82 165 1.7 7.8 0.00 0.00 0.00 76 1007.1
20260505225103 82 118 0.9 7.8 0.00 0.00 0.00 75 1006.9
20260505224053 82 222 0.9 6.1 0.00 0.00 0.00 75 1007.0
20260505223042 83 87 2.6 7.8 0.00 0.00 0.00 74 1007.1
20260505222032 83 247 1.7 5.2 0.00 0.00 0.00 73 1007.1
20260505221022 83 220 1.7 5.2 0.00 0.00 0.00 73 1007.1
20260505220113 83 127 1.7 7.0 0.00 0.00 0.00 73 1007.4
20260505215103 83 103 0.9 6.1 0.00 0.00 0.00 73 1007.3
20260505214113 84 166 1.7 6.1 0.00 0.00 0.00 71 1007.6
20260505213043 84 190 0.9 3.5 0.00 0.00 0.00 72 1007.5
20260505212033 83 118 2.6 7.8 0.00 0.00 0.00 73 1007.8
20260505211023 83 349 1.7 7.0 0.00 0.00 0.00 73 1008.0
20260505210134 83 137 2.6 6.1 0.00 0.00 0.00 73 1008.0
20260505205104 83 146 1.7 7.8 0.00 0.00 0.00 73 1008.3
20260505204054 83 94 1.7 8.7 0.00 0.00 0.00 73 1008.4
20260505203044 84 123 0.9 3.5 0.00 0.00 0.00 72 1008.4
20260505202054 84 143 1.7 6.1 0.00 0.00 0.00 72 1008.6
20260505201024 85 187 1.7 2.6 0.00 0.00 0.00 72 1008.7
20260505200115 84 315 0.9 7.8 0.00 0.00 0.00 73 1008.8
20260505195105 84 136 1.7 7.0 0.00 0.00 0.00 73 1008.9
20260505194115 83 125 1.7 3.5 0.00 0.00 0.00 74 1009.1
20260505193045 82 200 1.7 7.0 0.00 0.00 0.00 75 1009.0
20260505192035 83 130 1.7 7.0 0.00 0.00 0.00 74 1009.2
20260505191025 83 150 1.7 5.2 0.00 0.00 0.00 75 1009.3
20260505190115 83 174 1.7 2.6 0.00 0.00 0.00 74 1009.1